EW7351 Weather Reports


Display with metric or nautical units.
time (UTC)temp
F
wind
direction
speed
MPH
gust
MPH
rain 1hr
in
rain 24hr
in
rain mn
in
humidity
%
barometer
mb
20260507010208 59 25 3.0 9.0 0.00 0.00 0.00 78 1013.6
20260507005706 59 337 3.0 9.0 0.00 0.00 0.00 79 1013.6
20260507004941 59 354 2.0 7.0 0.00 0.00 0.00 79 1013.6
20260507004703 59 6 1.0 4.0 0.00 0.00 0.00 80 1013.6
20260507003914 59 286 0.0 3.0 0.00 0.00 0.00 80 1013.4
20260507003345 59 295 1.0 4.0 0.00 0.00 0.00 80 1013.4
20260507002844 59 38 1.0 4.0 0.00 0.00 0.00 80 1013.3
20260507002317 59 338 1.0 4.0 0.00 0.00 0.00 79 1013.3
20260507001813 59 67 1.0 4.0 0.00 0.00 0.00 79 1013.3
20260507001309 59 63 2.0 8.0 0.00 0.00 0.00 79 1013.2
20260507000807 59 11 3.0 9.0 0.00 0.00 0.00 78 1013.0
20260507000306 59 296 3.0 9.0 0.00 0.00 0.00 78 1013.0
20260506235741 59 342 3.0 9.0 0.00 0.00 0.00 78 1012.9
20260506235215 59 322 2.0 6.0 0.00 0.00 0.00 78 1013.1
20260506234650 59 79 1.0 7.0 0.00 0.00 0.00 78 1013.1
20260506234416 59 1 1.0 7.0 0.00 0.00 0.00 77 1013.1
20260506233647 59 359 3.0 11.0 0.00 0.00 0.00 77 1013.1
20260506233150 59 352 3.0 11.0 0.00 0.00 0.00 76 1013.0
20260506232646 59 39 2.0 9.0 0.00 0.00 0.00 77 1012.9
20260506232149 59 357 3.0 8.0 0.00 0.00 0.00 77 1012.8
20260506231619 59 302 3.0 9.0 0.00 0.00 0.00 76 1012.7
20260506231118 59 344 3.0 7.0 0.00 0.00 0.00 77 1012.7
20260506230614 59 24 3.0 8.0 0.00 0.00 0.00 77 1012.8
20260506230337 59 341 3.0 6.0 0.00 0.00 0.00 78 1012.4
20260506225607 59 79 3.0 8.0 0.00 0.00 0.00 78 1012.4
20260506225107 59 335 2.0 6.0 0.00 0.00 0.00 78 1012.5
20260506224537 59 4 2.0 6.0 0.00 0.00 0.00 78 1012.7
20260506224036 59 36 3.0 8.0 0.00 0.00 0.00 78 1012.8
20260506223512 58 327 4.0 9.0 0.00 0.00 0.00 78 1012.7
20260506222941 58 8 4.0 9.0 0.00 0.00 0.00 78 1012.7
20260506222439 58 58 4.0 10.0 0.00 0.00 0.00 78 1012.7
20260506221915 58 30 4.0 10.0 0.00 0.00 0.00 78 1012.6
20260506221352 58 307 4.0 10.0 0.00 0.00 0.00 79 1012.4
20260506221112 58 27 4.0 11.0 0.00 0.00 0.00 79 1012.0
20260506220349 58 13 4.0 11.0 0.00 0.00 0.00 79 1012.0
20260506215849 58 314 3.0 8.0 0.00 0.00 0.00 79 1012.2
20260506215351 59 46 2.0 7.0 0.00 0.00 0.00 79 1012.2
20260506214826 59 36 2.0 7.0 0.00 0.00 0.00 77 1012.3
20260506214257 59 328 2.0 8.0 0.00 0.00 0.00 77 1012.1
20260506214023 60 22 3.0 8.0 0.00 0.00 0.00 75 1012.5
20260506213517 60 300 3.0 9.0 0.00 0.00 0.00 73 1012.3
20260506212751 60 4 2.0 9.0 0.00 0.00 0.00 73 1012.2
20260506212222 60 351 2.0 6.0 0.00 0.00 0.00 73 1012.2
20260506211718 60 7 2.0 6.0 0.00 0.00 0.00 73 1012.3
20260506211151 60 38 2.0 6.0 0.00 0.00 0.00 74 1012.4
20260506210645 60 55 3.0 6.0 0.00 0.00 0.00 74 1012.2
20260506210406 60 316 3.0 9.0 0.00 0.00 0.00 73 1012.5
20260506205635 60 330 3.0 9.0 0.00 0.00 0.00 73 1012.5
20260506205133 60 341 3.0 9.0 0.00 0.00 0.00 74 1012.4
20260506204832 60 11 4.0 9.0 0.00 0.00 0.00 74 1012.6
20260506204039 60 353 4.0 8.0 0.00 0.00 0.00 73 1012.6
20260506203538 60 65 3.0 8.0 0.00 0.00 0.00 73 1012.7
20260506203013 60 23 2.0 8.0 0.00 0.00 0.00 75 1012.6
20260506202702 60 23 3.0 9.0 0.00 0.00 0.00 76 1012.7
20260506201942 59 29 3.0 9.0 0.00 0.00 0.00 76 1012.9
20260506201639 59 35 2.0 7.0 0.00 0.00 0.00 76 1013.1
20260506201111 59 309 2.0 6.0 0.00 0.00 0.00 75 1013.1
20260506200344 59 13 2.0 7.0 0.00 0.00 0.00 75 1013.4
20260506195841 59 44 3.0 7.0 0.00 0.00 0.00 74 1013.2
20260506195337 60 51 3.0 7.0 0.00 0.00 0.00 76 1012.8
20260506194831 59 31 2.0 7.0 0.00 0.00 0.00 79 1012.6
20260506194329 58 315 2.0 5.0 0.00 0.00 0.00 80 1012.7
20260506194247 58 18 2.0 5.0 0.00 0.00 0.00 79 1013.0
20260506193259 57 352 2.0 5.0 0.00 0.00 0.00 79 1013.0
20260506192758 57 14 1.0 6.0 0.00 0.00 0.00 79 1013.3
20260506192253 57 40 1.0 6.0 0.00 0.00 0.00 80 1013.5
20260506191752 57 315 2.0 7.0 0.00 0.00 0.00 80 1013.5
20260506191225 57 334 2.0 7.0 0.00 0.00 0.00 79 1013.4
20260506190726 57 15 2.0 6.0 0.00 0.00 0.00 80 1013.3
20260506190418 57 345 2.0 6.0 0.00 0.00 0.00 80 1013.2
20260506185653 57 30 2.0 6.0 0.00 0.00 0.00 80 1013.2
20260506185123 56 6 2.0 5.0 0.00 0.00 0.00 80 1013.4
20260506184619 56 23 1.0 7.0 0.00 0.00 0.00 80 1013.2
20260506184120 56 10 2.0 7.0 0.00 0.00 0.00 80 1013.1
20260506183551 56 347 2.0 7.0 0.00 0.00 0.00 80 1012.8
20260506183049 56 12 3.0 10.0 0.00 0.00 0.00 80 1012.6
20260506182523 56 41 4.0 10.0 0.00 0.00 0.00 82 1012.2
20260506182022 56 25 5.0 12.0 0.00 0.00 0.00 82 1012.0
20260506181453 56 39 4.0 12.0 0.00 0.00 0.00 82 1011.7
20260506180952 56 322 5.0 10.0 0.00 0.00 0.00 82 1011.6
20260506180912 55 7 6.0 13.0 0.00 0.00 0.00 82 1011.6
20260506175857 55 328 6.0 13.0 0.00 0.00 0.00 82 1011.5
20260506175354 55 356 5.0 13.0 0.00 0.00 0.00 83 1012.0
20260506174830 55 337 4.0 12.0 0.00 0.00 0.00 83 1012.3
20260506174305 55 11 4.0 9.0 0.00 0.00 0.00 85 1012.4
20260506174004 55 356 2.0 9.0 0.00 0.00 0.00 87 1012.5
20260506173220 55 329 1.0 6.0 0.00 0.00 0.00 88 1012.9
20260506172703 54 345 2.0 9.0 0.00 0.00 0.00 88 1013.2
20260506172425 53 87 4.0 10.0 0.00 0.00 0.00 88 1013.1
20260506171701 53 63 3.0 10.0 0.00 0.00 0.00 89 1013.2
20260506171205 53 326 3.0 8.0 0.00 0.00 0.00 89 1013.3
20260506170638 53 6 4.0 14.0 0.00 0.00 0.00 89 1013.3
20260506170112 53 35 5.0 14.0 0.00 0.00 0.00 89 1012.6
20260506165609 53 342 4.0 10.0 0.00 0.00 0.00 89 1012.7
20260506165107 53 14 4.0 9.0 0.00 0.00 0.00 89 1013.0
20260506164814 53 41 3.0 8.0 0.00 0.00 0.00 89 1013.0
20260506164052 54 33 2.0 8.0 0.00 0.00 0.00 89 1013.1
20260506163529 54 5 2.0 8.0 0.00 0.00 0.00 88 1013.2
20260506162959 54 28 2.0 5.0 0.00 0.00 0.00 89 1013.3
20260506162720 54 333 1.0 5.0 0.00 0.00 0.00 89 1013.3
20260506161958 55 68 0.0 2.0 0.00 0.00 0.00 89 1013.4
20260506161451 54 66 0.0 4.0 0.00 0.00 0.00 89 1013.3
20260506160953 54 68 0.0 4.0 0.00 0.00 0.00 89 1013.3
20260506160437 54 108 0.0 3.0 0.00 0.00 0.00 89 1013.5
20260506160202 53 357 1.0 14.0 0.00 0.00 0.00 89 1013.4
20260506155417 53 11 1.0 14.0 0.00 0.00 0.00 88 1012.9
20260506154851 52 14 4.0 15.0 0.00 0.00 0.00 86 1013.5
20260506154352 52 335 5.0 15.0 0.00 0.00 0.00 85 1012.0
20260506153826 53 325 2.0 9.0 0.00 0.00 0.00 83 1013.9
20260506153528 54 349 1.0 19.0 0.00 0.00 0.00 80 1014.6
20260506152740 54 267 1.0 19.0 0.00 0.00 0.00 79 1015.0
20260506152242 54 94 2.0 6.0 0.00 0.00 0.00 78 1014.7
20260506151715 54 351 3.0 10.0 0.00 0.00 0.00 79 1014.1
20260506151157 54 52 3.0 10.0 0.00 0.00 0.00 79 1013.8
20260506150630 54 33 3.0 9.0 0.00 0.00 0.00 79 1013.4
20260506150058 54 6 4.0 10.0 0.00 0.00 0.00 78 1013.3
20260506145057 54 309 4.0 11.0 0.00 0.00 0.00 77 1012.8
20260506144556 54 18 3.0 9.0 0.00 0.00 0.00 76 1013.0
20260506144034 54 326 3.0 9.0 0.00 0.00 0.00 77 1013.6
20260506143531 54 15 3.0 9.0 0.00 0.00 0.00 77 1013.5
20260506143231 54 6 3.0 10.0 0.00 0.00 0.00 77 1013.0
20260506142445 54 334 4.0 10.0 0.00 0.00 0.00 77 1012.9
20260506141922 54 328 3.0 10.0 0.00 0.00 0.00 77 1013.0
20260506141355 54 319 3.0 8.0 0.00 0.00 0.00 77 1013.0
20260506140855 54 347 4.0 9.0 0.00 0.00 0.00 77 1012.8
20260506140350 54 315 4.0 9.0 0.00 0.00 0.00 76 1012.6
20260506135850 54 329 3.0 9.0 0.00 0.00 0.00 76 1012.4
20260506135812 54 309 3.0 9.0 0.00 0.00 0.00 77 1012.4
20260506134756 54 304 3.0 11.0 0.00 0.00 0.00 77 1012.5
20260506134230 54 332 4.0 11.0 0.00 0.00 0.00 77 1012.5
20260506133729 54 4 5.0 12.0 0.00 0.00 0.00 78 1012.3
20260506133201 54 37 5.0 12.0 0.00 0.00 0.00 78 1012.2
20260506132637 54 25 4.0 10.0 0.00 0.00 0.00 78 1012.2
20260506132401 54 315 3.0 10.0 0.00 0.00 0.00 79 1012.0
20260506131632 54 2 3.0 10.0 0.00 0.00 0.00 79 1012.0
20260506131109 54 342 3.0 10.0 0.00 0.00 0.00 79 1012.1
20260506130543 54 343 4.0 11.0 0.00 0.00 0.00 78 1012.0
20260506130026 54 330 4.0 11.0 0.00 0.00 0.00 78 1012.0
20260506125526 54 335 4.0 9.0 0.00 0.00 0.00 78 1012.0
20260506125248 54 247 4.0 9.0 0.00 0.00 0.00 77 1011.7
20260506124523 54 347 4.0 8.0 0.00 0.00 0.00 77 1011.5
20260506124024 55 20 3.0 9.0 0.00 0.00 0.00 76 1011.5
20260506123506 55 330 3.0 7.0 0.00 0.00 0.00 76 1011.5
20260506123433 55 340 3.0 10.0 0.00 0.00 0.00 76 1011.6
20260506122422 55 30 3.0 10.0 0.00 0.00 0.00 76 1011.1
20260506121920 55 16 4.0 11.0 0.00 0.00 0.00 76 1011.2
20260506121418 55 340 4.0 11.0 0.00 0.00 0.00 76 1011.4
20260506120852 55 11 5.0 14.0 0.00 0.00 0.00 75 1011.3
20260506120350 55 357 5.0 14.0 0.00 0.00 0.00 75 1011.3
20260506115849 55 307 5.0 11.0 0.00 0.00 0.00 74 1011.3
20260506115320 55 350 5.0 11.0 0.00 0.00 0.00 74 1011.0
20260506114822 55 321 5.0 14.0 0.00 0.00 0.00 74 1011.0
20260506114257 55 309 3.0 14.0 0.00 0.00 0.00 73 1010.8
20260506113751 56 28 3.0 9.0 0.00 0.00 0.00 72 1010.6
20260506113509 56 317 4.0 10.0 0.00 0.00 0.00 72 1010.5
20260506112721 56 345 4.0 11.0 0.00 0.00 0.00 72 1010.6
20260506112218 56 14 4.0 11.0 0.00 0.00 0.00 72 1010.7
20260506111706 56 316 5.0 12.0 0.00 0.00 0.00 72 1010.4
20260506111209 56 72 4.0 12.0 0.00 0.00 0.00 72 1010.4
20260506110650 56 30 4.0 10.0 0.00 0.00 0.00 71 1010.4
20260506110122 56 1 4.0 12.0 0.00 0.00 0.00 71 1010.2
20260506105559 57 16 4.0 12.0 0.00 0.00 0.00 70 1010.1
20260506105033 57 321 4.0 10.0 0.00 0.00 0.00 70 1009.9
20260506104528 57 27 4.0 10.0 0.00 0.00 0.00 70 1009.9
20260506104026 57 340 4.0 9.0 0.00 0.00 0.00 69 1009.8
20260506103502 57 27 3.0 9.0 0.00 0.00 0.00 69 1009.6
20260506103214 57 321 3.0 9.0 0.00 0.00 0.00 69 1009.5
20260506102724 57 352 3.0 9.0 0.00 0.00 0.00 69 1009.4
20260506101927 57 35 4.0 8.0 0.00 0.00 0.00 69 1009.3
20260506101401 58 9 3.0 8.0 0.00 0.00 0.00 69 1009.2
20260506100836 58 82 3.0 7.0 0.00 0.00 0.00 69 1009.1
20260506100307 58 333 3.0 8.0 0.00 0.00 0.00 69 1009.1
20260506095738 58 26 3.0 9.0 0.00 0.00 0.00 69 1009.1
20260506095458 58 96 2.0 9.0 0.00 0.00 0.00 70 1009.0
20260506094706 58 23 2.0 5.0 0.00 0.00 0.00 70 1009.0
20260506094204 58 1 3.0 7.0 0.00 0.00 0.00 69 1009.0
20260506093925 58 342 3.0 7.0 0.00 0.00 0.00 69 1009.0
20260506093203 58 324 2.0 7.0 0.00 0.00 0.00 69 1009.0
20260506092632 58 352 2.0 9.0 0.00 0.00 0.00 70 1009.1
20260506092130 58 350 3.0 9.0 0.00 0.00 0.00 69 1008.9
20260506092104 58 345 3.0 9.0 0.00 0.00 0.00 69 1008.8
20260506091557 58 347 2.0 9.0 0.00 0.00 0.00 69 1008.9
20260506090613 58 2 2.0 8.0 0.00 0.00 0.00 69 1008.8
20260506090114 58 9 3.0 8.0 0.00 0.00 0.00 69 1008.7
20260506085828 58 18 2.0 7.0 0.00 0.00 0.00 69 1008.6
20260506085058 58 338 3.0 10.0 0.00 0.00 0.00 69 1008.5
20260506084600 58 337 3.0 10.0 0.00 0.00 0.00 70 1008.5
20260506084029 58 328 3.0 8.0 0.00 0.00 0.00 69 1008.6
20260506083505 59 9 1.0 5.0 0.00 0.00 0.00 71 1008.5
20260506082940 59 14 2.0 7.0 0.00 0.00 0.00 70 1008.4
20260506082418 59 12 2.0 7.0 0.00 0.00 0.00 70 1008.1
20260506081918 59 338 2.0 7.0 0.00 0.00 0.00 70 1008.1
20260506081352 59 50 3.0 7.0 0.00 0.00 0.00 70 1008.2
20260506080846 59 356 3.0 7.0 0.00 0.00 0.00 71 1008.3
20260506080346 59 330 3.0 7.0 0.00 0.00 0.00 71 1008.3
20260506073214 60 345 2.0 8.0 0.00 0.00 0.00 71 1008.3
20260506072649 60 23 3.0 8.0 0.00 0.00 0.00 71 1008.4
20260506072128 60 356 3.0 8.0 0.00 0.00 0.00 71 1008.3
20260506071826 60 25 2.0 8.0 0.00 0.00 0.00 71 1008.4
20260506071035 60 326 2.0 8.0 0.00 0.00 0.00 71 1008.5
20260506070538 60 39 4.0 9.0 0.00 0.00 0.00 72 1008.3
20260506062314 62 359 2.0 6.0 0.00 0.00 0.00 72 1008.2
20260506061747 62 340 2.0 6.0 0.00 0.00 0.00 72 1008.3
20260506061224 62 359 3.0 9.0 0.00 0.00 0.00 72 1008.2
20260506060914 62 4 3.0 9.0 0.00 0.00 0.00 72 1008.1
20260506060200 62 44 3.0 7.0 0.00 0.00 0.00 72 1008.0
20260506050909 64 344 3.0 10.0 0.00 0.00 0.00 72 1008.0
20260506050346 64 346 3.0 10.0 0.00 0.00 0.00 72 1007.8
20260506044813 65 14 3.0 9.0 0.00 0.00 0.00 71 1007.8
20260506044311 65 350 3.0 10.0 0.00 0.00 0.00 71 1007.8
20260506043756 66 344 4.0 10.0 0.00 0.00 0.00 70 1007.7
20260506043243 66 39 3.0 9.0 0.00 0.00 0.00 71 1007.6
20260506042742 67 343 2.0 8.0 0.00 0.00 0.00 70 1007.7
20260506042243 67 320 3.0 8.0 0.00 0.00 0.00 71 1007.5
20260506042007 67 49 3.0 10.0 0.00 0.00 0.00 70 1007.3
20260506041243 68 349 3.0 10.0 0.00 0.00 0.00 70 1007.2
20260506040739 68 21 3.0 7.0 0.00 0.00 0.00 69 1007.2
20260506040240 69 351 4.0 11.0 0.00 0.00 0.00 69 1007.2
20260506035709 69 354 5.0 11.0 0.00 0.00 0.00 69 1007.3
20260506035206 69 34 4.0 10.0 0.00 0.00 0.00 69 1007.1
20260506034652 70 327 3.0 12.0 0.00 0.00 0.00 69 1007.1
20260506034153 70 27 3.0 8.0 0.00 0.00 0.00 69 1007.0
20260506033647 70 12 3.0 11.0 0.00 0.00 0.00 69 1006.8
20260506033144 70 23 4.0 11.0 0.00 0.00 0.00 69 1007.1
20260506032620 70 18 4.0 9.0 0.00 0.00 0.00 68 1006.8
20260506032113 71 349 4.0 9.0 0.00 0.00 0.00 68 1006.4
20260506031612 71 2 4.0 9.0 0.00 0.00 0.00 68 1006.6
20260506031113 71 17 4.0 11.0 0.00 0.00 0.00 68 1006.8
20260506030845 71 304 4.0 11.0 0.00 0.00 0.00 68 1006.7
20260506030048 72 355 5.0 14.0 0.00 0.00 0.00 67 1006.3
20260506025544 73 347 5.0 14.0 0.00 0.00 0.00 67 1006.2
20260506025045 73 349 5.0 12.0 0.00 0.00 0.00 66 1005.9
20260506024537 74 29 4.0 12.0 0.00 0.00 0.00 66 1005.9
20260506024037 74 15 4.0 8.0 0.00 0.00 0.00 65 1005.7
20260506023513 74 33 3.0 8.0 0.00 0.00 0.00 65 1005.5
20260506023011 74 347 2.0 7.0 0.00 0.00 0.00 65 1005.3
20260506022459 74 344 2.0 8.0 0.00 0.00 0.00 65 1005.1
20260506022002 74 23 2.0 8.0 0.00 0.00 0.00 65 1004.9
20260506021457 74 345 1.0 5.0 0.00 0.00 0.00 64 1004.7
20260506021000 74 333 2.0 10.0 0.00 0.00 0.00 64 1004.9
20260506020456 75 340 2.0 10.0 0.00 0.00 0.00 64 1004.7
20260506015954 75 338 3.0 6.0 0.00 0.00 0.00 63 1004.7
20260506015423 75 347 2.0 7.0 0.00 0.00 0.00 63 1004.8
20260506014919 75 345 2.0 7.0 0.00 0.00 0.00 63 1004.8
20260506014415 75 359 2.0 7.0 0.00 0.00 0.00 63 1004.4
20260506013914 76 32 3.0 9.0 0.00 0.00 0.00 63 1004.5
20260506013349 76 310 3.0 9.0 0.00 0.00 0.00 63 1004.3
20260506012823 76 308 3.0 8.0 0.00 0.00 0.00 63 1004.4
20260506012253 77 340 3.0 8.0 0.00 0.00 0.00 62 1004.6
20260506012012 78 325 2.0 8.0 0.00 0.00 0.00 62 1004.3
20260506011237 78 345 2.0 7.0 0.00 0.00 0.00 61 1004.0
20260506010734 78 9 1.0 4.0 0.00 0.00 0.00 61 1003.9